Location: Unspecified
(52.1971°N, 0.0000°E)
Time: 16:18:18
(UTC+00:00)

YUBILEINY - Pass Details

Date: 15 December 2019
Orbit: 1478 x 1509 km, 82.5° (Epoch: 19 January)

Event Time Altitude Azimuth Distance (km) Brightness Sun altitude
Exits shadow 22:42:26 13° 2° (N) 3,415 ? -57.9°
Drops below altitude 10° 22:43:11 10° 4° (N) 3,631 ? -58.0°
Sets 22:46:22 0° 12° (NNE) 4,613 ? -58.2°
